Cairns, Australia

12:15 PM AEST on September 26, 2017 (GMT +1000)
Cairns International

Weather History for YBCS - November, 2011

Change the Weather History Date:

Wednesday, November 30, 2011

  Actual Average Record
Temperature  
Mean Temperature 81 °F -  
Max Temperature 87 °F 88 °F 89 °F (2005)
Min Temperature 75 °F 74 °F 66 °F (1996)
Cooling Degree Days 16    
Growing Degree Days 31 (Base 50)    
Moisture  
Dew Point 74 °F    
Average Humidity 80    
Maximum Humidity 94    
Minimum Humidity 54    
Precipitation  
Precipitation 0.12 in 0.25 in - ()
Sea Level Pressure  
Sea Level Pressure 29.80 in    
Wind  
Wind Speed 10 mph ()    
Max Wind Speed 20 mph    
Max Gust Speed -    
Visibility 6.4 miles    
Events Rain    
Averages and records for this station are not official NWS values.
T = Trace of Precipitation, MM = Missing Value Source: Averaged Metar Reports

Daily Weather History Graph

Daily Weather History Graph

Search for Another Location

Airport or City:

Trip Planner

Search our weather history database for the weather conditions in past years. The results will help you decide how hot, cold, wet, or windy it might be!

Date:

Astronomy

Nov. 30, 2011 Rise Set
Actual Time 5:34 AM AEST 6:36 PM AEST
Civil Twilight 5:10 AM AEST 7:00 PM AEST
Nautical Twilight 4:42 AM AEST 7:28 PM AEST
Astronomical Twilight 4:14 AM AEST 7:57 PM AEST
Moon 10:09 AM AEST (11/30) 11:04 PM AEST (11/30)
Length of Visible Light 13h 50m
Length of Day
13h 02m
Waxing Crescent, 27% of the Moon is Illuminated
Nov 30
Waxing Crescent
Dec 2
First Quarter
Dec 11
Full
Dec 18
Last Quarter
Dec 25
New

Hourly Weather History & Observations

Time (AEST) Temp. Heat Index Dew Point Humidity Pressure Visibility Wind Dir Wind Speed Gust Speed Precip Events Conditions
12:00 AM 78.8 °F - 75.2 °F 89% 29.86 in 6.2 mi South 10.4 mph - N/A Rain Light Rain Showers
12:30 AM 78.8 °F - 75.2 °F 89% 29.83 in 6.2 mi South 9.2 mph - N/A   Mostly Cloudy
1:00 AM 78 °F - 75 °F 86% 29.84 in - South 8.1 mph - -  
1:00 AM 78.8 °F - 75.2 °F 89% 29.83 in 6.2 mi South 8.1 mph - N/A   Mostly Cloudy
1:30 AM 78.8 °F - 75.2 °F 89% 29.80 in 6.2 mi South 9.2 mph - N/A   Mostly Cloudy
2:00 AM 78.8 °F - 75.2 °F 89% 29.80 in 6.2 mi South 9.2 mph - N/A   Mostly Cloudy
2:30 AM 78.8 °F - 73.4 °F 83% 29.80 in 6.2 mi South 9.2 mph - N/A   Mostly Cloudy
3:00 AM 78 °F - 74 °F 83% 29.79 in 12 mi SSE 9.2 mph - - Rain Light Rain Showers
3:00 AM 78.8 °F - 73.4 °F 83% 29.77 in 6.2 mi SSE 9.2 mph - N/A   Mostly Cloudy
3:30 AM 78.8 °F - 73.4 °F 83% 29.77 in 6.2 mi SSE 10.4 mph - N/A   Mostly Cloudy
4:00 AM 78 °F - 74 °F 82% 29.80 in - SSE 9.2 mph - -  
4:00 AM 78.8 °F - 73.4 °F 83% 29.77 in 6.2 mi SSE 9.2 mph - N/A   Mostly Cloudy
4:30 AM 78.8 °F - 73.4 °F 83% 29.77 in 6.2 mi South 9.2 mph - N/A   Scattered Clouds
5:00 AM 77.0 °F - 73.4 °F 89% 29.80 in 6.2 mi SSE 10.4 mph - N/A Rain Light Rain Showers
5:30 AM 77.0 °F - 73.4 °F 89% 29.80 in 6.2 mi South 9.2 mph - N/A   Mostly Cloudy
5:53 AM 77.0 °F - 73.4 °F 89% 29.83 in 3.1 mi SSE 11.5 mph - N/A Rain Light Rain Showers
6:00 AM 76 °F - 74 °F 93% 29.83 in 4 mi South 10.4 mph - - Rain Light Rain Showers
6:00 AM 77.0 °F - 75.2 °F 94% 29.83 in 3.7 mi South 10.4 mph - N/A Rain Light Rain Showers
6:18 AM 77.0 °F - 73.4 °F 89% 29.83 in 6.2 mi South 11.5 mph - N/A   Mostly Cloudy
6:30 AM 77.0 °F - 75.2 °F 94% 29.83 in 6.2 mi South 10.4 mph - N/A   Scattered Clouds
7:00 AM 78 °F - 74 °F 84% 29.84 in - South 11.5 mph - -  
7:00 AM 78.8 °F - 73.4 °F 83% 29.83 in 6.2 mi South 11.5 mph - N/A   Scattered Clouds
7:30 AM 78.8 °F - 73.4 °F 83% 29.83 in 6.2 mi South 10.4 mph - N/A   Scattered Clouds
8:00 AM 78.8 °F - 73.4 °F 83% 29.83 in 6.2 mi SSE 11.5 mph - N/A   Scattered Clouds
8:30 AM 80.6 °F 85.4 °F 73.4 °F 79% 29.86 in 6.2 mi SSE 13.8 mph - N/A   Mostly Cloudy
8:50 AM 80.6 °F 86.2 °F 75.2 °F 84% 29.86 in 6.2 mi SSE 13.8 mph - N/A Rain Light Rain Showers
9:00 AM 78 °F - 74 °F 86% 29.87 in 2 mi SSE 18.4 mph - - Rain Light Rain Showers
9:00 AM 78.8 °F - 75.2 °F 89% 29.86 in 6.2 mi SSE 18.4 mph - N/A Rain Light Rain Showers
9:07 AM 77.0 °F - 75.2 °F 94% 29.86 in 1.9 mi SSE 19.6 mph - N/A Rain Light Rain Showers
9:30 AM 77.0 °F - 75.2 °F 94% 29.86 in 6.2 mi South 10.4 mph - N/A   Mostly Cloudy
10:00 AM 82.4 °F 90.9 °F 77.0 °F 84% 29.83 in 6.2 mi South 9.2 mph - N/A   Mostly Cloudy
10:30 AM 82.4 °F 89.5 °F 75.2 °F 79% 29.86 in 6.2 mi South 13.8 mph - N/A   Scattered Clouds
11:00 AM 84.2 °F 92.3 °F 75.2 °F 74% 29.83 in 6.2 mi South 9.2 mph - N/A   Mostly Cloudy
11:30 AM 84.2 °F 92.3 °F 75.2 °F 74% 29.83 in 6.2 mi SSE 15.0 mph - N/A   Mostly Cloudy
12:00 PM 82 °F - 75 °F 75% 29.83 in 12 mi SSE 16.1 mph - -   Mostly Cloudy
12:00 PM 82.4 °F 89.5 °F 75.2 °F 79% 29.83 in 6.2 mi SSE 16.1 mph - N/A   Mostly Cloudy
12:30 PM 86.0 °F 95.1 °F 75.2 °F 70% 29.80 in 6.2 mi SSE 10.4 mph - N/A   Mostly Cloudy
1:00 PM 86 °F - 74 °F 61% 29.80 in - SE 11.5 mph - -  
1:00 PM 86.0 °F 95.1 °F 75.2 °F 70% 29.77 in 6.2 mi SE 11.5 mph - N/A   Scattered Clouds
1:30 PM 87.8 °F 93.8 °F 71.6 °F 58% 29.77 in 6.2 mi SE 17.3 mph - N/A   Scattered Clouds
2:00 PM 87.8 °F 97.6 °F 75.2 °F 66% 29.77 in 6.2 mi SE 16.1 mph - N/A   Partly Cloudy
2:30 PM 87.8 °F 95.6 °F 73.4 °F 62% 29.77 in 6.2 mi SE 15.0 mph - N/A   Partly Cloudy
3:00 PM 87 °F - 72 °F 54% 29.76 in 19 mi SE 15.0 mph - -   Partly Cloudy
3:00 PM 87.8 °F 95.6 °F 73.4 °F 62% 29.74 in 6.2 mi SE 15.0 mph - N/A   Partly Cloudy
3:30 PM 86.0 °F 93.4 °F 73.4 °F 66% 29.74 in 6.2 mi SE 16.1 mph - N/A   Partly Cloudy
4:00 PM 86 °F - 73 °F 57% 29.76 in - SE 16.1 mph - -  
4:00 PM 86.0 °F 93.4 °F 73.4 °F 66% 29.74 in 6.2 mi SE 16.1 mph - N/A   Scattered Clouds
4:30 PM 86.0 °F 93.4 °F 73.4 °F 66% 29.74 in 6.2 mi SE 15.0 mph - N/A   Partly Cloudy
5:00 PM 84.2 °F 92.3 °F 75.2 °F 74% 29.74 in 6.2 mi SE 12.7 mph - N/A   Scattered Clouds
5:30 PM 84.2 °F 92.3 °F 75.2 °F 74% 29.74 in 6.2 mi SE 12.7 mph - N/A   Scattered Clouds
6:00 PM 83 °F - 74 °F 69% 29.75 in - SSE 12.7 mph - -  
6:00 PM 82.4 °F 89.5 °F 75.2 °F 79% 29.74 in 6.2 mi SSE 12.7 mph - N/A   Scattered Clouds
6:30 PM 82.4 °F 89.5 °F 75.2 °F 79% 29.74 in 6.2 mi SE 10.4 mph - N/A   Scattered Clouds
7:00 PM 82 °F - 75 °F 73% 29.77 in - SSE 9.2 mph - -  
7:00 PM 82.4 °F 89.5 °F 75.2 °F 79% 29.77 in 5.6 mi SSE 9.2 mph - N/A   Scattered Clouds
7:30 PM 80.6 °F 86.2 °F 75.2 °F 84% 29.77 in 6.2 mi South 8.1 mph - N/A   Scattered Clouds
8:00 PM 80.6 °F 86.2 °F 75.2 °F 84% 29.77 in 6.2 mi South 8.1 mph - N/A   Partly Cloudy
8:30 PM 80.6 °F 86.2 °F 75.2 °F 84% 29.77 in 6.2 mi SSE 8.1 mph - N/A   Partly Cloudy
9:00 PM 80 °F - 75 °F 79% 29.80 in 9 mi SSE 6.9 mph - -   Haze
9:00 PM 80.6 °F 86.2 °F 75.2 °F 84% 29.80 in 6.2 mi SSE 6.9 mph - N/A   Partly Cloudy
9:30 PM 80.6 °F 86.2 °F 75.2 °F 84% 29.80 in 6.2 mi South 9.2 mph - N/A   Scattered Clouds
10:00 PM 80 °F - 75 °F 80% 29.82 in - SSE 10.4 mph - -  
10:00 PM 80.6 °F 86.2 °F 75.2 °F 84% 29.80 in 6.2 mi SSE 10.4 mph - N/A   Scattered Clouds
10:30 PM 78.8 °F - 75.2 °F 89% 29.80 in 6.2 mi South 10.4 mph - N/A   Scattered Clouds
11:00 PM 78.8 °F - 75.2 °F 89% 29.80 in 6.2 mi South 9.2 mph - N/A   Partly Cloudy
11:30 PM 80.6 °F 86.2 °F 75.2 °F 84% 29.77 in 6.2 mi SSE 9.2 mph - N/A   Mostly Cloudy